Regional Weather Roundup
Issued by NWS

Home | Current Version | Previous Version | Text Only | Print | Product List | Glossary Off
Versions: 1 2 3 4 5 6 7 8 9 10 11 12 13 14 15 16 17 18 19 20 21 22 23 24 25 26 27 28 29 30 31 32 33 34 35 36 37 38 39 40 41 42 43 44 45 46 47 48 49 50

000
ASUS43 KLOT 272358
RWRIL

ILLINOIS REGIONAL WEATHER ROUNDUP
NATIONAL WEATHER SERVICE CHICAGO/ROMEOVILLE IL
600 PM CST SAT DEC 27 2014

NOTE: "FAIR" INDICATES FEW OR NO CLOUDS BELOW 12,000 FEET WITH NO
SIGNIFICANT WEATHER AND/OR OBSTRUCTIONS TO VISIBILITY.

* THESE STATIONS ARE NOT UNDER NWS QUALITY CONTROL. THEY ALSO MAY NOT
  REPORT WEATHER SUCH AS PRECIPITATION OR FOG.

ILZ001-002-007-009-015-016-024-280100-
NORTHWEST ILLINOIS

CITY           SKY/WX    TMP DP  RH WIND       PRES   REMARKS
MOLINE         CLOUDY    32  24  72 W16       30.16R WCI  21
6HR MIN TEMP:  32; 6HR MAX TEMP:  35;

$$

ILZ003-004-008-010-011-017-018-280100-
NORTH CENTRAL ILLINOIS

CITY           SKY/WX    TMP DP  RH WIND       PRES   REMARKS
ROCKFORD       NOT AVBL
$$

ILZ005-006-012>014-019>023-280100-
NORTHEAST ILLINOIS

CITY           SKY/WX    TMP DP  RH WIND       PRES   REMARKS
CHICAGO-OHARE  CLOUDY    34  26  72 W13       30.07R WCI  25
6HR MIN TEMP:  34; 6HR MAX TEMP:  39; 6HR PCP: TRACE;

CHICAGO-MIDWAY NOT AVBL
AURORA         CLOUDY    34  26  72 W13       30.09S WCI  25
6HR MIN TEMP:  34; 6HR MAX TEMP:  38;

WAUKEGAN       NOT AVBL
DUPAGE AIRPORT CLOUDY    33  26  75 W14       30.07S WCI  23
6HR MIN TEMP:  33; 6HR MAX TEMP:  37;

WHEELING       CLOUDY    34  26  72 W13       30.08R WCI  25
6HR MIN TEMP:  34; 6HR MAX TEMP:  41;

NORTHERLY ISL    N/A     35  27  73 W15         N/A  WCI  25
$$

LMZ740>746-280100-
SOUTHERN LAKE MICHIGAN

STATION/POSITION SKY/WX   TEMP    WIND        PRES    VSBY  WAVE
                          AIR SEA DIR/SP/G                  HT/PER
                          (F)     (DEG/KT/KT) (MB)    (MI)  (FT/S)
WAUKEGAN HARBOR            35     270/ 21/ 27   N/A
HARRISON CRIB              35     260/ 23/ 30   N/A
BURNHAM HARBOR             36     290/ 14/ 18   N/A
CALUMET HARBOR             35     260/ 11/ 20 1017.2R
MICHIGAN CITY              37     230/ 22/ 26   N/A
$$

ILZ025>027-034>036-040-047-049-050-058-095>099-280100-
WEST-CENTRAL ILLINOIS

CITY           SKY/WX    TMP DP  RH WIND       PRES   REMARKS
$$

ILZ028>032-037-038-041>044-048-051>054-059>061-280100-
CENTRAL ILLINOIS

CITY           SKY/WX    TMP DP  RH WIND       PRES   REMARKS
PEORIA         NOT AVBL
SPRINGFIELD    CLOUDY    36  32  85 NW7       30.17R WCI  30
6HR MIN TEMP:  36; 6HR MAX TEMP:  41; 6HR PCP:  0.01;

TAYLORVILLE    NOT AVBL
$$

ILZ033-039-045-046-055>057-062-063-280100-
EAST-CENTRAL ILLINOIS

CITY           SKY/WX    TMP DP  RH WIND       PRES   REMARKS
CHAMPAIGN      LGT SNOW  34  33  96 W10       30.13R FOG     WCI  26
MATTOON        RAIN      37  36  96 NW13      30.13R WCI  29
$$

ILZ079-100>102-280100-
SOUTHWEST ILLINOIS

CITY           SKY/WX    TMP DP  RH WIND       PRES   REMARKS
BELLEVILLE     LGT RAIN  37  37 100 NW9       30.17F WCI  31
CAHOKIA*       RAIN      35  33  92 NW5       30.18S FOG     WCI  31
$$

ILZ064>066-069>071-074>076-080>082-084>086-088>090-092>094-280100-
SOUTH-CENTRAL ILLINOIS

CITY           SKY/WX    TMP DP  RH WIND       PRES   REMARKS
CARBONDALE     LGT RAIN  40  38  93 N13       30.18R FOG
6HR MIN TEMP:  40; 6HR MAX TEMP:  50; 6HR PCP:  0.07;

MARION         RAIN      43  39  87 NW12      30.17R
$$

ILZ067-068-072-073-078-083-087-091-280100-
SOUTHEAST ILLINOIS

CITY           SKY/WX    TMP DP  RH WIND       PRES   REMARKS
$$

ABBREVIATIONS USED IN REMARKS
   TC - TEMPERATURE IN CELSIUS
  WCI - WIND CHILL INDEX
   HX - HEAT INDEX
  VSB - VISIBILITY
$$



USA.gov is the U.S. government's official web portal to all federal, state and local government web resources and services.